FW6082 Weather Reports


time (UTC)temp
C
wind
direction
speed
KPH
gust
KPH
rain 1hr
cm
rain 24hr
cm
rain mn
cm
humidity
%
barometer
mb
20260508144543 21 240 0.0 1.6 0.00 0.00 0.00 13 1013.7
20260508143039 20 191 0.0 0.0 0.00 0.00 0.00 14 1014.2
20260508141536 20 285 0.0 1.6 0.00 0.00 0.00 15 1014.2
20260508140033 18 5 0.0 3.2 0.00 0.00 0.00 17 1014.5
20260508134533 17 19 0.0 3.2 0.00 0.00 0.00 18 1014.7
20260508133023 16 34 0.0 3.2 0.00 0.00 0.00 19 1014.5
20260508131519 14 340 0.0 1.6 0.00 0.00 0.00 22 1014.6
20260508130015 12 27 0.0 3.2 0.00 0.00 0.00 29 1014.7
20260508124510 9 276 0.0 0.0 0.00 0.00 0.00 33 1014.7
20260508123009 7 276 1.6 4.8 0.00 0.00 0.00 36 1014.5
20260508121504 8 276 0.0 0.0 0.00 0.00 0.00 38 1014.2
20260508120003 8 276 0.0 1.6 0.00 0.00 0.00 35 1014.2
20260508114600 6 276 0.0 4.8 0.00 0.00 0.00 37 1014.0
20260508113103 6 276 0.0 1.6 0.00 0.00 0.00 45 1013.9
20260508111659 6 276 0.0 3.2 0.00 0.00 0.00 47 1013.9
20260508110128 6 276 0.0 0.0 0.00 0.00 0.00 45 1013.8
20260508104603 6 276 0.0 0.0 0.00 0.00 0.00 43 1013.7
20260508103058 6 276 0.0 3.2 0.00 0.00 0.00 47 1013.8
20260508101557 6 276 0.0 0.0 0.00 0.00 0.00 47 1014.0
20260508100054 6 276 0.0 0.0 0.00 0.00 0.00 47 1013.9
20260508094556 6 276 0.0 1.6 0.00 0.00 0.00 46 1014.0
20260508093152 6 276 0.0 0.0 0.00 0.00 0.00 46 1014.0
20260508091551 6 276 0.0 1.6 0.00 0.00 0.00 45 1014.0
20260508090107 7 276 0.0 0.0 0.00 0.00 0.00 40 1014.0
20260508084550 7 276 0.0 4.8 0.00 0.00 0.00 42 1014.0
20260508083048 7 276 0.0 3.2 0.00 0.00 0.00 43 1014.1
20260508081557 7 276 0.0 3.2 0.00 0.00 0.00 40 1014.2
20260508080046 7 276 0.0 1.6 0.00 0.00 0.00 42 1014.3
20260508074645 7 276 0.0 4.8 0.00 0.00 0.00 41 1014.4
20260508073043 5 276 0.0 3.2 0.00 0.00 0.00 48 1014.7
20260508071543 5 276 0.0 0.0 0.00 0.00 0.00 50 1014.8
20260508070042 5 276 0.0 0.0 0.00 0.00 0.00 53 1014.7
20260508064540 5 276 0.0 0.0 0.00 0.00 0.00 55 1014.8
20260508063038 5 276 0.0 0.0 0.00 0.00 0.00 53 1014.9
20260508061536 6 276 0.0 1.6 0.00 0.00 0.00 51 1014.9
20260508060134 6 276 0.0 1.6 0.00 0.00 0.00 47 1015.0
20260508054538 7 276 0.0 0.0 0.00 0.00 0.00 46 1014.6
20260508053031 6 276 0.0 9.7 0.00 0.00 0.00 49 1014.5
20260508051529 6 280 0.0 4.8 0.00 0.00 0.00 50 1014.3
20260508050028 6 309 0.0 1.6 0.00 0.00 0.00 56 1014.6
20260508044525 6 309 0.0 1.6 0.00 0.00 0.00 52 1014.8
20260508043022 7 309 0.0 1.6 0.00 0.00 0.00 53 1014.6
20260508041623 7 309 0.0 3.2 0.00 0.00 0.00 53 1014.8
20260508040019 7 309 0.0 3.2 0.00 0.00 0.00 53 1014.3
20260508034519 7 309 0.0 3.2 0.00 0.00 0.00 53 1014.6
20260508033024 8 309 0.0 0.0 0.00 0.00 0.00 51 1014.9
20260508031515 8 309 0.0 0.0 0.00 0.00 0.00 50 1014.5
20260508030015 9 309 0.0 0.0 0.00 0.00 0.00 49 1014.5
20260508024519 9 309 0.0 1.6 0.00 0.00 0.00 51 1014.7
20260508023113 10 296 0.0 3.2 0.00 0.00 0.00 49 1014.8
20260508021513 10 281 0.0 4.8 0.00 0.00 0.00 50 1014.8
20260508020013 10 281 0.0 1.6 0.00 0.00 0.00 50 1015.2
20260508014512 10 281 0.0 4.8 0.00 0.00 0.00 54 1014.9
20260508013011 10 263 0.0 3.2 0.00 0.00 0.00 57 1014.9
20260508011511 10 236 0.0 0.0 0.00 0.00 0.00 55 1015.1
20260508010013 11 236 0.0 0.0 0.00 0.00 0.00 55 1014.9
20260508004610 11 236 0.0 3.2 0.00 0.00 0.00 54 1014.8
20260508003009 12 192 0.0 0.0 0.00 0.00 0.00 51 1014.9
20260508001511 14 192 0.0 0.0 0.00 0.00 0.00 44 1015.1
20260508000010 15 192 0.0 0.0 0.00 0.00 0.00 44 1014.9
20260507234508 16 239 0.0 3.2 0.00 0.00 0.00 42 1014.9
20260507233009 16 153 0.0 8.0 0.00 0.00 0.00 41 1014.8
20260507231507 17 105 0.0 4.8 0.00 0.00 0.00 39 1014.6
20260507230108 17 30 3.2 8.0 0.00 0.00 0.00 38 1014.4
20260507224509 17 200 3.2 12.9 0.00 0.00 0.00 34 1014.2
20260507223006 18 86 1.6 12.9 0.00 0.00 0.00 31 1013.9
20260507221505 17 215 3.2 14.5 0.00 0.00 0.00 30 1013.7
20260507220006 18 207 9.7 19.3 0.00 0.00 0.00 30 1013.7
20260507214504 18 186 8.0 17.7 0.00 0.00 0.00 25 1013.7
20260507213012 19 186 3.2 14.5 0.00 0.00 0.00 22 1013.3
20260507211504 19 175 3.2 12.9 0.00 0.00 0.00 19 1013.2
20260507210022 20 210 6.4 14.5 0.00 0.00 0.00 18 1013.1
20260507204502 20 186 4.8 16.1 0.00 0.00 0.00 18 1013.2
20260507203002 20 155 4.8 12.9 0.00 0.00 0.00 17 1012.9
20260507201604 21 192 4.8 16.1 0.00 0.00 0.00 16 1013.1
20260507200107 22 157 6.4 16.1 0.00 0.00 0.00 14 1013.3
20260507194558 22 186 6.4 16.1 0.00 0.00 0.00 14 1013.3
20260507193123 22 156 3.2 17.7 0.00 0.00 0.00 14 1013.1
20260507191600 22 201 6.4 14.5 0.00 0.00 0.00 14 1013.5
20260507190054 22 158 6.4 14.5 0.00 0.00 0.00 15 1013.4
20260507184555 21 138 8.0 16.1 0.00 0.00 0.00 16 1013.5
20260507183059 21 139 9.7 17.7 0.00 0.00 0.00 17 1013.7
20260507181549 22 184 6.4 19.3 0.00 0.00 0.00 16 1013.5
20260507180047 21 146 4.8 16.1 0.00 0.00 0.00 16 1013.8
20260507174545 21 152 6.4 16.1 0.00 0.00 0.00 19 1014.0
20260507173103 21 180 6.4 17.7 0.00 0.00 0.00 19 1014.3
20260507171544 21 145 4.8 14.5 0.00 0.00 0.00 20 1014.5
20260507170042 20 149 4.8 16.1 0.00 0.00 0.00 23 1015.0
20260507164534 20 158 4.8 16.1 0.00 0.00 0.00 25 1015.2
20260507163036 20 128 1.6 8.0 0.00 0.00 0.00 26 1015.2
20260507161532 21 86 3.2 8.0 0.00 0.00 0.00 22 1015.8
20260507160053 20 165 0.0 1.6 0.00 0.00 0.00 25 1015.8
20260507154524 20 161 0.0 1.6 0.00 0.00 0.00 32 1015.8
20260507153021 18 317 0.0 4.8 0.00 0.00 0.00 36 1016.1
20260507151517 18 216 0.0 3.2 0.00 0.00 0.00 39 1016.5
20260507150015 17 274 1.6 6.4 0.00 0.00 0.00 44 1016.7